Temp
15 15 14 14 14 14 14 14 14 14 14 14 14 14 14 14 14 14 14 14 14 14 14 14 14 14 14 14 14 14 14 14 14 14 14 13 13 13 13 13 13 14 14 13 13 13 13 13 13 12 12 12 12 12 12 12 12 12 12 12 13 14 15 15 15 15 15 14 15
15 15 15 15 14 14 14 14 14 14 14 14 14 14 14 14 14 14 14 14 14 14 14 14 14 14 14 14 14 14 14 14 14 14 14 13 13 13 13 13 13 13 14 13 13 13 13 13 12 12 12 12 12 12 12 12 12 12 12 12 13 14 14 15 15 15 15 14 15
15 15 15 15 14 14 14 14 14 14 14 14 14 14 14 14 14 14 14 14 14 14 14 14 14 14 14 14 14 14 14 14 14 14 14 13 13 13 13 13 13 13 13 13 13 13 13 13 12 12 12 11 12 12 12 12 12 11 11 12 13 14 14 15 15 15 14 15 15
14 15 15 15 14 14 14 14 14 14 14 14 14 14 14 14 14 14 14 14 14 14 14 14 14 14 14 14 14 14 14 14 14 14 13 13 13 13 13 13 13 13 13 13 13 13 13 12 12 12 12 11 12 12 12 12 12 11 11 12 13 14 14 15 15 14 14 15 15
14 14 14 14 14 14 14 14 14 14 14 14 14 14 13 13 14 14 13 13 14 13 13 13 13 13 13 13 13 14 14 14 14 13 13 13 13 13 13 13 13 13 13 13 13 12 12 12 12 12 12 12 12 12 12 13 12 11 11 12 13 14 14 15 14 13 14 15 15
14 14 14 14 14 14 14 14 14 14 14 14 13 13 13 13 13 13 13 13 13 13 13 13 13 13 13 13 13 13 13 14 14 13 13 13 13 13 13 13 13 13 13 13 12 12 11 11 11 11 11 12 12 12 13 13 12 11 12 13 14 14 14 14 13 13 14 14 15
14 14 14 14 14 14 14 14 14 14 14 13 14 13 13 13 13 13 13 13 13 13 13 13 13 13 13 13 13 13 13 13 13 13 13 13 13 13 13 13 13 13 13 13 13 12 11 11 11 11 11 11 12 12 13 13 12 12 12 13 14 14 14 13 13 13 14 14 14
13 13 14 14 14 13 13 13 13 13 13 13 13 13 13 13 13 13 13 13 13 13 13 13 13 13 13 13 13 13 13 13 13 13 13 13 13 13 13 13 13 13 13 13 12 12 11 11 11 11 11 11 12 12 12 12 11 12 13 13 14 13 13 12 13 13 14 14 14
13 13 13 13 13 13 13 13 13 13 13 13 13 13 13 13 13 13 13 13 13 13 13 13 13 13 13 13 13 12 12 12 12 12 13 13 13 13 13 13 13 13 12 12 12 12 11 11 11 11 11 11 12 12 12 11 11 12 13 13 13 12 12 12 13 13 13 14 14
13 13 13 13 13 13 13 13 13 13 13 13 13 13 13 13 13 13 13 13 13 13 13 13 12 12 13 13 12 12 12 12 12 12 12 12 12 12 12 12 12 12 12 11 11 11 11 11 11 11 11 11 11 11 11 11 12 13 13 13 12 12 12 12 13 13 13 14 14
13 13 13 13 13 12 12 12 13 13 13 13 13 13 13 13 13 13 13 13 13 13 13 13 12 12 12 12 12 12 12 12 12 12 12 12 12 12 12 12 12 12 11 11 11 11 11 11 11 11 11 11 11 10 11 11 12 13 13 12 12 12 12 13 13 13 14 14 14
13 13 13 12 12 12 13 13 13 13 13 13 13 13 13 13 13 13 13 12 12 12 12 12 12 12 12 12 12 12 12 12 12 12 12 12 11 11 11 11 11 11 11 10 10 10 10 10 10 10 10 10 10 10 11 12 12 13 12 11 11 12 13 13 13 14 14 14 14
12 12 12 12 12 12 13 12 12 12 12 12 12 12 12 12 12 12 12 12 12 12 12 12 12 12 12 12 12 12 12 12 12 12 11 11 11 11 11 11 11 11 10 10 10 10 10 10 10 10 10 10 10 10 11 11 12 12 11 11 12 12 13 13 14 14 14 14 15
12 12 12 12 12 12 12 12 12 12 12 12 12 12 12 12 12 12 12 12 12 12 12 12 12 12 12 12 12 12 11 11 11 11 11 11 11 11 11 11 11 10 10 10 10 10 10 10 10 10 10 10 11 11 11 11 11 11 11 11 12 13 13 13 14 14 14 15 15
12 12 12 12 12 12 12 12 12 12 12 12 12 12 12 12 12 12 12 12 12 12 12 12 12 12 12 12 12 11 11 11 11 11 11 11 11 11 11 11 11 10 10 10 10 10 10 10 11 11 11 11 11 11 11 11 11 11 11 11 12 13 14 14 15 15 15 16 16
12 12 12 12 12 12 12 12 12 12 12 12 12 12 12 12 12 12 12 12 12 12 12 11 11 11 11 11 11 11 11 11 11 11 11 11 11 11 11 11 11 10 10 10 10 10 10 11 11 11 11 11 11 11 11 11 11 11 11 12 13 14 14 15 15 16 16 17 17
12 12 12 12 12 12 12 12 12 11 11 11 11 11 11 11 11 12 12 11 11 11 11 11 11 11 11 11 11 11 11 11 11 11 11 11 11 11 11 11 11 11 11 11 11 11 11 11 11 11 11 11 11 11 11 11 11 12 12 13 14 14 15 16 16 16 17 17 17
12 12 12 12 12 12 11 11 11 11 11 11 11 11 11 11 11 11 11 11 11 11 11 11 11 11 11 11 11 11 11 11 11 11 11 11 11 11 11 11 11 11 11 11 11 11 11 11 11 11 11 11 11 11 11 12 12 12 13 13 14 14 15 15 16 16 16 16 16
12 12 12 12 12 11 11 11 11 11 11 11 11 11 11 11 11 11 11 11 11 11 11 11 11 11 11 11 11 11 11 11 11 11 11 11 11 11 11 11 11 11 11 11 11 11 11 11 11 11 11 10 10 11 11 12 12 12 13 13 14 14 14 15 15 16 15 15 14
12 12 12 12 11 11 11 11 11 11 11 11 11 11 11 11 11 11 11 11 11 11 11 11 11 11 11 11 11 11 11 11 11 10 10 10 10 10 10 11 11 11 11 11 11 11 11 12 12 11 11 11 11 11 12 12 12 12 12 13 13 13 14 14 15 14 14 13 13
12 12 12 11 11 11 11 11 11 11 11 11 11 11 11 11 11 11 11 11 11 11 11 11 11 11 11 11 11 11 11 11 11 10 10 10 10 10 10 10 10 10 11 11 11 12 12 12 12 12 11 11 11 11 11 11 11 12 12 12 13 13 14 14 13 13 13 13 13
12 12 11 11 11 11 11 11 11 11 11 11 11 11 11 11 11 11 11 11 11 11 10 10 10 11 11 11 11 11 11 11 11 10 10 10 10 10 10 10 10 11 11 12 12 12 12 12 12 11 11 11 11 11 11 11 11 12 12 13 13 13 13 13 12 12 12 12 12
12 12 11 11 11 11 11 11 11 11 11 11 11 11 11 11 11 11 11 11 10 10 10 10 10 11 11 11 11 11 11 11 11 10 10 10 10 10 11 11 11 11 12 12 13 12 12 12 11 11 11 11 11 11 11 12 12 13 13 14 13 12 12 12 12 12 12 11 11
12 11 11 11 11 11 11 11 11 11 11 11 11 11 11 11 11 11 11 10 10 10 10 10 10 11 11 11 11 11 11 11 11 10 10 10 11 11 11 12 12 12 12 12 12 12 12 11 11 11 11 11 11 12 12 12 13 14 14 13 12 12 12 11 11 11 10 10 10
12 11 11 11 11 11 11 11 11 11 11 11 11 11 11 11 11 11 11 10 10 10 10 10 10 10 11 11 11 11 11 11 11 10 10 11 11 12 12 12 12 12 12 12 12 12 12 11 11 11 11 11 12 12 13 13 13 14 13 13 12 11 11 10 10 9 9 8 8
12 11 11 11 11 11 11 11 11 11 11 11 11 11 11 11 11 11 11 10 10 10 10 10 10 10 10 10 10 11 11 11 10 10 11 11 12 12 12 12 12 12 12 12 12 12 11 11 11 11 12 12 12 12 13 13 13 13 12 12 11 11 10 9 8 7 7 6 6
11 11 11 11 11 11 11 11 11 11 11 11 11 11 11 11 11 11 11 11 10 10 10 10 10 10 10 10 10 10 10 10 10 11 11 12 12 12 12 12 12 12 12 12 12 12 12 12 12 12 12 13 13 13 12 12 12 12 11 11 10 9 9 8 6 5 5 4 4
11 11 11 11 11 11 11 11 11 11 11 11 11 11 11 11 11 11 11 11 10 10 10 10 10 10 10 10 10 10 10 10 10 11 12 12 12 12 13 13 13 12 12 12 12 12 12 12 12 13 13 13 13 13 12 11 11 10 10 9 8 7 6 6 5 4 3 3 3
11 11 11 11 11 11 11 11 11 11 11 11 11 11 11 11 11 11 11 11 10 10 10 10 10 10 10 10 10 10 10 10 11 12 12 12 13 13 13 13 13 12 12 12 12 12 12 12 13 13 13 14 13 12 11 10 9 9 8 7 6 5 4 4 3 2 2 2 2
11 11 11 11 11 11 11 11 11 11 11 11 11 11 11 11 11 11 11 11 10 10 10 10 10 10 10 10 10 10 10 11 11 12 12 12 13 12 12 12 12 12 12 12 12 12 12 12 13 13 13 13 13 11 10 9 8 7 5 4 3 3 2 2 2 1 1 1 1
12 11 11 11 11 11 11 11 11 11 11 11 11 11 11 11 11 11 11 11 11 11 11 11 11 11 10 10 10 10 10 11 12 12 13 12 12 11 11 11 10 11 11 11 12 12 12 12 12 13 13 13 12 10 9 7 6 5 4 2 2 2 1 1 0 0 0 1 0
12 12 11 11 11 11 11 11 11 11 11 11 11 11 11 11 11 11 11 11 11 11 11 11 11 11 11 11 11 11 11 11 12 13 12 12 11 11 10 9 9 9 10 10 11 11 11 12 12 12 12 12 11 9 7 6 5 3 2 1 1 1 0 0 -1 -1 -1 -1 -1
12 12 12 12 11 11 11 11 11 11 11 11 11 11 11 11 11 11 11 11 11 11 11 11 12 12 12 12 12 12 12 12 12 12 12 11 10 9 8 7 7 7 7 9 10 11 11 11 11 11 11 11 9 8 6 5 3 2 1 0 -0 -1 -1 -1 -1 -2 -2 -2 -2
12 12 12 11 11 11 11 11 11 11 11 11 11 11 11 11 11 11 11 11 11 11 11 11 11 11 12 12 12 11 11 11 11 10 10 10 9 8 6 6 5 5 6 7 9 10 10 10 10 10 10 9 8 6 4 3 2 1 -0 -1 -1 -2 -2 -2 -2 -2 -2 -2 -2
11 11 11 11 11 11 11 11 11 11 11 11 11 11 11 11 11 11 11 10 10 10 10 10 11 11 11 10 10 10 9 10 9 8 8 8 7 6 5 4 3 3 4 6 7 8 9 9 9 9 9 8 6 4 3 2 1 -1 -2 -2 -2 -3 -3 -3 -3 -3 -3 -3 -3
11 11 11 11 11 11 11 11 11 11 11 11 11 11 10 10 10 11 10 10 10 10 9 9 9 9 9 8 8 8 8 8 7 6 6 6 6 5 4 2 2 2 3 4 5 6 7 7 8 8 8 6 4 2 1 0 -1 -2 -3 -3 -3 -3 -4 -4 -4 -4 -4 -4 -4
11 11 11 11 11 11 11 11 11 11 11 11 10 10 9 9 9 10 10 10 9 9 8 8 7 6 6 5 5 6 6 6 6 5 4 5 5 4 3 1 1 1 2 3 4 4 5 6 6 7 6 5 3 1 -0 -1 -2 -3 -3 -4 -4 -4 -4 -4 -4 -4 -4 -4 -4
11 11 11 11 11 11 11 11 11 11 11 10 9 8 9 8 8 8 8 9 8 7 6 6 5 4 4 4 4 4 5 5 5 4 3 3 3 3 2 0 0 0 1 2 2 3 3 4 4 5 5 4 2 0 -1 -2 -3 -4 -4 -5 -5 -5 -5 -5 -5 -5 -5 -5 -5
11 11 11 11 11 11 11 11 11 11 10 8 8 7 7 7 6 6 7 7 7 6 5 5 4 4 3 3 2 2 2 2 2 2 1 1 1 1 1 0 -0 -0 0 1 1 2 2 2 3 3 3 2 1 -1 -2 -3 -4 -4 -5 -5 -6 -6 -6 -6 -6 -6 -6 -6 -6
11 11 11 11 11 11 11 11 11 10 8 7 7 6 6 6 5 5 5 5 5 5 4 3 3 2 1 1 1 1 1 1 1 0 -0 -0 -0 -0 -0 -0 -1 -1 -1 -0 0 0 1 1 1 1 1 1 -0 -1 -2 -3 -4 -5 -6 -6 -6 -6 -7 -7 -7 -7 -7 -7 -7
12 12 11 11 11 11 11 10 9 8 7 6 6 5 4 4 4 4 4 4 4 3 3 2 1 0 0 1 0 -0 -1 -1 -1 -1 -1 -1 -1 -1 -1 -1 -2 -2 -2 -1 -1 -1 -1 -1 -1 -1 -1 -1 -2 -2 -3 -4 -5 -6 -6 -6 -7 -7 -7 -7 -7 -7 -7 -7 -7
Height
686 687 688 690 691 692 693 694 695 697 698 699 699 699 699 700 701 702 704 705 707 708 710 712 713 714 716 717 719 720 721 724 726 729 731 734 736 739 742 745 747 749 751 753 755 758 760 762 763 765 766 768 769 771 773 776 780 783 786 790 793 795 796 796 796 797 799 801 802
685 686 687 689 690 691 692 693 694 695 697 698 698 698 698 698 699 700 702 704 705 707 709 710 712 713 715 716 718 719 720 722 725 727 730 732 734 737 740 743 745 748 750 752 755 757 759 761 763 765 766 767 768 770 772 776 780 783 786 790 792 794 794 795 795 796 798 800 800
684 685 686 687 688 690 690 691 693 694 695 696 697 698 697 697 698 699 701 703 705 706 707 708 710 712 714 715 717 718 720 721 724 726 729 731 732 735 738 741 744 747 749 751 753 756 758 760 762 763 765 765 766 768 771 776 780 784 786 789 791 792 793 793 795 796 798 799 800
683 684 685 685 686 687 688 690 691 692 694 695 697 697 697 697 697 698 700 702 704 705 705 706 708 710 713 714 715 717 719 721 723 725 728 729 731 733 736 739 742 745 748 750 752 755 757 759 760 762 763 764 765 767 771 776 781 785 787 789 790 791 791 792 794 796 798 798 798
682 683 683 684 685 685 686 688 689 690 692 694 695 696 696 696 697 698 699 701 702 703 703 705 706 709 711 713 714 716 718 720 723 725 727 727 729 731 735 738 741 744 746 749 751 753 756 757 759 760 761 763 765 767 770 775 780 785 787 789 790 790 790 791 794 796 797 797 797
681 682 683 683 684 684 685 686 687 689 690 692 694 695 695 696 696 697 698 700 700 701 702 703 705 707 710 712 713 715 717 719 722 724 725 727 728 730 734 737 740 743 745 747 750 752 755 756 757 758 760 762 765 767 770 774 780 784 787 788 788 788 789 791 794 795 795 795 795
680 681 682 683 683 684 684 685 686 687 689 690 692 693 695 695 696 696 697 698 700 700 701 702 704 706 708 711 712 714 715 718 720 722 724 726 728 730 732 736 739 741 744 746 748 751 753 754 755 756 759 761 764 766 769 774 779 783 786 786 786 787 789 791 793 794 794 794 795
680 681 682 682 683 683 684 685 685 686 687 688 690 692 693 694 695 696 697 698 699 700 700 701 702 704 707 710 712 713 715 717 719 721 723 725 727 729 731 734 737 740 742 744 745 748 750 753 754 755 757 760 763 765 769 774 779 783 785 784 784 786 789 790 792 792 793 793 794
680 680 681 682 682 683 684 685 685 685 686 686 688 690 691 693 694 695 697 698 699 700 700 701 702 704 706 709 711 713 715 716 718 719 721 724 726 728 730 732 735 738 741 743 743 745 747 750 752 753 755 757 761 765 769 775 780 782 783 783 784 786 788 790 790 791 792 792 793
679 680 680 681 682 683 684 685 685 685 685 686 686 688 690 692 694 695 697 698 700 701 701 702 703 705 707 709 711 714 715 716 717 718 720 722 725 727 728 730 732 736 739 741 743 744 745 748 750 751 753 756 760 764 770 775 779 780 781 782 784 786 788 789 790 790 791 792 793
678 679 680 681 681 682 683 685 685 686 686 686 687 688 690 692 694 695 697 698 700 701 702 703 704 705 707 709 711 713 715 716 717 718 720 722 724 725 727 728 730 733 737 740 741 743 744 746 748 750 752 755 759 764 769 773 776 778 779 782 784 786 787 788 789 789 790 791 792
678 679 680 680 681 682 683 684 685 686 687 687 688 689 691 692 694 695 697 698 700 701 702 703 704 705 707 709 711 713 715 716 717 718 720 722 723 725 726 728 730 732 735 738 740 742 743 745 746 749 751 754 759 763 768 771 774 776 779 782 784 786 787 787 788 789 790 790 792
678 679 680 681 681 682 684 685 686 687 688 689 690 690 692 693 695 696 697 698 700 701 702 704 705 706 707 709 711 713 714 715 717 718 720 722 723 724 725 727 730 733 736 738 740 741 742 744 746 748 751 755 759 763 767 770 773 776 779 782 784 785 786 786 787 789 790 790 791
679 680 680 681 682 683 684 685 686 687 688 689 690 691 692 694 695 696 697 699 700 701 703 704 705 706 707 709 710 712 714 715 716 718 720 721 723 724 725 728 731 734 736 738 740 740 742 744 746 749 752 756 760 764 767 771 774 777 780 782 784 785 785 786 788 789 790 790 790
679 680 681 681 682 683 684 685 687 688 689 690 691 692 693 694 695 696 698 699 700 702 703 704 705 707 708 709 710 712 713 715 716 718 719 721 723 724 726 729 731 734 736 738 740 741 743 745 747 751 754 758 761 765 768 772 775 777 779 781 783 784 785 786 787 788 788 789 789
680 680 681 682 683 684 685 686 687 688 689 690 691 692 694 695 696 697 698 699 700 701 703 704 705 707 708 710 711 712 714 715 716 717 719 720 723 725 727 729 731 734 736 738 741 743 745 747 750 753 756 760 763 766 769 772 775 777 779 781 783 785 786 786 787 787 787 787 788
680 681 682 683 683 684 685 686 687 689 690 690 691 693 694 695 696 697 698 699 700 701 703 704 705 706 708 710 712 713 714 715 716 717 718 720 722 725 727 729 731 734 736 739 741 744 746 749 751 755 758 761 764 767 770 772 775 777 780 782 784 785 785 786 786 786 786 786 787
681 682 682 683 684 685 686 687 688 689 690 691 692 693 694 695 696 698 699 700 700 702 703 705 705 707 708 710 712 714 715 716 717 717 719 720 722 724 726 729 731 734 736 739 742 744 747 750 753 756 759 762 765 767 770 772 775 778 780 782 784 785 785 785 785 785 786 786 786
681 682 683 684 685 685 686 687 688 689 690 691 692 693 695 696 697 698 699 700 701 702 703 705 706 707 709 711 713 714 715 717 718 718 719 720 722 724 726 729 732 735 737 740 742 745 747 750 754 757 760 763 765 768 770 773 776 778 780 782 783 784 784 785 785 785 785 785 786
682 683 684 684 685 686 687 688 689 690 690 691 693 694 695 696 697 699 700 701 702 703 704 705 706 708 710 711 713 715 716 717 718 720 720 722 723 725 727 730 732 735 738 740 743 745 749 752 755 758 760 763 766 768 771 774 776 778 780 781 782 783 784 784 784 784 784 784 785
682 683 684 685 686 687 688 689 690 690 691 692 693 695 695 697 698 699 700 701 702 703 704 705 706 708 710 712 713 715 717 718 719 720 722 724 725 727 729 731 734 736 739 742 745 747 750 753 755 758 761 763 766 769 771 773 775 777 778 780 781 782 782 782 782 782 782 783 783
683 684 685 685 686 687 688 689 690 691 692 693 694 695 696 697 699 700 701 702 703 704 705 706 707 708 710 712 714 715 717 719 720 722 724 725 727 729 730 733 735 738 741 744 746 749 751 754 756 759 761 764 766 769 770 773 774 776 777 779 780 780 780 780 780 780 780 781 781
683 684 685 686 687 688 689 690 691 692 693 694 695 696 697 698 699 700 701 703 704 705 706 707 708 709 711 713 714 716 717 719 721 723 725 727 729 730 732 735 737 740 743 745 748 750 752 755 757 760 762 764 766 768 770 771 773 775 776 777 778 777 777 777 778 779 779 780 780
683 684 685 686 687 688 689 690 691 692 693 694 695 696 697 699 700 701 702 703 705 706 707 708 709 710 712 714 715 717 718 720 722 724 726 728 730 732 734 737 739 742 744 746 749 751 753 755 757 760 762 764 765 767 769 770 772 773 774 775 775 775 775 776 777 777 778 779 780
684 685 685 687 688 689 690 690 692 693 694 695 696 697 698 699 700 702 703 705 706 707 708 709 710 711 713 715 717 718 720 721 723 725 727 729 731 733 736 738 741 743 745 747 750 751 753 755 757 759 761 763 765 767 768 770 770 771 771 771 772 773 774 775 775 776 777 778 779
684 685 686 687 688 689 690 691 692 693 694 695 696 697 699 700 701 702 704 705 706 707 709 710 711 713 715 716 718 720 721 723 725 726 728 730 733 735 737 740 742 744 746 748 750 752 753 755 757 759 760 762 765 766 767 767 767 768 768 769 770 771 772 773 775 776 777 778 779
684 685 686 687 688 689 690 691 692 693 695 695 697 698 699 700 701 703 704 705 707 708 709 710 712 714 716 717 719 721 723 725 727 728 730 732 734 736 738 740 743 745 747 749 750 752 754 755 757 759 760 762 762 763 763 764 765 766 767 768 769 770 772 773 775 776 777 778 779
685 685 687 688 689 690 690 692 693 694 695 696 697 698 700 701 702 703 705 706 707 709 710 712 714 715 717 719 720 722 724 726 728 730 731 733 735 737 739 741 743 745 747 748 750 751 753 755 756 757 758 759 759 760 761 762 763 765 766 768 769 770 772 773 775 776 777 778 779
685 686 687 688 689 690 691 692 693 694 695 696 697 699 700 701 702 704 705 706 708 709 711 713 715 716 718 720 721 723 725 727 729 730 732 733 735 737 740 742 743 744 746 747 749 751 752 754 755 755 756 756 757 758 760 761 763 764 766 768 770 771 772 774 775 776 778 779 779
685 686 687 688 689 690 691 692 693 694 695 697 698 699 700 702 703 704 705 707 708 710 712 713 715 717 719 720 722 724 725 727 729 730 731 733 736 738 739 740 742 743 745 747 749 750 751 752 753 754 754 755 755 757 759 760 762 764 766 768 770 771 773 774 776 777 778 779 780
685 686 687 688 690 690 692 693 694 695 696 697 699 700 701 702 704 705 706 707 709 711 712 714 716 718 720 721 723 725 726 727 729 730 731 734 735 737 739 740 742 744 745 747 748 749 750 751 751 752 753 753 755 756 758 760 762 764 766 768 770 772 773 775 776 777 778 779 780
685 686 687 688 690 691 692 693 694 695 696 698 699 700 702 703 704 705 707 709 710 712 714 715 717 719 720 722 724 726 727 729 730 731 732 734 735 737 739 741 742 744 745 746 747 748 749 749 750 750 751 752 753 755 757 760 762 765 767 769 771 772 774 775 776 777 778 779 780
684 685 687 688 690 691 692 694 695 696 697 699 700 701 702 704 705 706 708 710 712 713 715 717 719 720 722 724 725 727 728 730 731 731 732 734 735 737 740 741 742 744 745 746 746 747 747 748 748 749 750 751 753 755 757 760 762 765 767 770 771 773 774 775 776 777 778 779 780
684 685 687 688 690 691 692 694 695 696 698 699 701 702 704 705 706 708 710 712 713 715 716 718 720 721 722 724 725 726 728 729 730 731 732 734 736 738 739 741 743 745 746 746 746 746 746 747 747 748 750 751 753 756 758 760 763 766 769 770 772 774 775 776 777 778 779 780 781
684 685 687 688 690 691 693 694 695 697 699 700 702 704 705 706 707 709 710 712 714 716 717 719 720 721 722 723 725 726 727 728 729 731 732 734 735 737 740 742 744 745 746 746 746 746 746 746 747 748 750 751 754 757 759 761 765 767 770 771 773 775 776 777 778 780 780 781 782
684 685 687 689 690 691 693 694 696 698 700 702 703 705 706 707 708 710 711 713 714 716 718 719 720 721 722 723 725 726 727 728 730 731 733 734 735 737 740 742 745 746 747 746 746 746 747 747 748 749 750 752 755 758 760 763 766 769 770 772 774 776 778 779 780 781 782 783 784
684 686 687 689 690 691 693 695 696 699 701 703 704 705 706 707 709 710 711 713 714 716 718 719 720 721 723 724 726 727 729 730 731 733 734 735 737 739 741 743 745 747 748 748 748 748 748 749 749 750 750 752 755 759 761 764 768 770 772 774 776 778 780 781 782 783 784 785 785
685 686 688 689 690 692 693 695 697 700 702 704 705 706 707 708 710 711 712 713 714 716 718 720 721 723 725 726 727 729 731 732 733 735 735 737 738 740 742 744 746 748 749 749 749 750 750 750 751 751 751 753 755 759 762 765 768 771 773 775 778 780 781 783 784 785 786 787 787
685 687 688 690 691 692 694 696 698 700 702 704 705 707 708 709 711 712 713 714 715 717 719 721 724 726 727 728 729 730 732 733 735 736 737 739 740 741 742 744 747 749 750 751 751 751 751 752 752 752 753 754 756 759 762 765 768 771 774 776 779 781 783 784 785 787 788 789 790
686 688 689 690 692 693 695 697 699 701 703 704 706 708 709 710 712 713 714 716 717 719 721 723 726 728 729 730 730 731 734 736 737 738 740 741 743 744 745 746 748 750 752 752 753 753 753 754 754 754 754 755 757 759 762 765 768 771 775 777 779 781 784 785 786 788 789 790 791
687 689 690 691 693 695 696 698 700 702 704 705 707 709 710 712 713 715 716 717 719 721 723 725 728 729 730 731 732 733 735 738 740 741 743 744 745 746 747 748 749 751 753 754 755 755 755 755 756 756 756 756 758 760 763 765 768 771 775 778 779 781 784 786 788 789 790 791 792
Wind_Speed
25 24 23 23 23 23 22 22 21 20 19 19 20 22 24 25 25 24 24 25 26 26 26 26 27 27 28 28 32 35 36 36 38 40 42 43 43 42 40 37 35 34 34 33 33 34 34 33 33 32 32 33 34 35 36 36 36 36 35 32 29 29 30 30 32 33 33 35 34
25 26 26 26 26 26 25 24 23 23 22 20 19 20 23 25 25 25 25 26 27 28 27 27 28 28 28 28 31 34 35 36 38 41 42 43 45 46 45 42 38 36 35 35 35 35 35 34 33 32 31 32 34 35 36 36 36 36 33 29 27 28 30 31 32 33 35 37 36
23 25 26 27 27 27 26 24 24 24 24 23 20 20 21 24 26 26 26 27 27 28 28 28 29 30 30 29 30 33 35 36 39 40 40 41 45 47 46 45 41 38 37 37 37 37 36 36 34 33 32 32 35 37 37 37 38 36 32 27 27 28 29 30 31 33 35 38 36
21 22 24 26 27 28 27 26 25 26 26 24 22 20 21 23 25 26 26 27 27 27 28 29 30 31 31 31 31 33 35 38 40 39 38 38 43 47 48 47 45 41 38 38 38 37 36 36 35 34 34 33 36 38 38 38 40 37 31 27 27 28 29 30 31 33 35 38 37
20 21 23 25 26 28 28 28 27 27 26 25 22 20 20 22 24 26 26 26 26 27 29 30 31 31 32 32 32 33 36 38 40 39 36 35 41 46 48 48 47 45 42 40 38 36 34 35 35 36 36 36 37 39 39 41 42 37 30 27 28 28 28 29 31 34 37 38 37
19 20 21 23 25 26 27 27 28 28 27 25 23 21 20 20 22 24 25 26 27 28 30 31 31 32 32 32 31 32 34 37 39 38 36 34 38 43 47 48 49 48 45 43 40 36 33 33 34 35 35 37 37 37 39 41 41 35 30 27 27 28 29 30 33 35 37 37 36
19 19 20 21 22 23 25 26 27 28 28 27 25 23 21 21 21 23 24 25 26 27 29 30 32 32 31 31 30 29 30 34 37 38 37 36 37 40 44 47 47 46 45 45 43 39 35 33 32 33 35 36 36 36 38 41 39 33 29 27 27 28 30 33 35 36 36 35 35
19 19 19 20 20 21 22 24 26 28 28 28 27 26 24 22 22 22 23 23 23 25 27 29 31 32 31 30 29 28 28 32 35 37 38 38 38 40 43 45 44 41 41 43 44 42 39 35 32 32 34 34 34 35 38 39 35 31 29 27 27 29 32 35 34 34 34 34 34
18 19 19 19 19 19 20 22 25 27 28 28 29 28 26 24 23 22 22 21 22 23 25 26 29 30 30 29 28 28 28 31 34 36 38 39 40 40 41 42 41 38 38 39 41 42 41 36 33 33 35 35 34 35 35 35 33 30 28 27 28 30 33 35 33 31 32 32 33
17 18 19 19 19 19 20 20 22 23 25 27 28 28 26 24 23 22 22 21 22 23 24 25 26 28 28 28 28 28 29 31 33 34 36 38 39 39 39 40 40 39 37 37 38 40 40 37 33 33 34 35 35 34 33 32 32 31 29 27 29 31 33 33 31 30 30 31 32
17 18 19 20 20 21 20 20 20 20 21 23 24 25 24 23 22 22 22 22 23 24 25 26 27 28 28 28 29 29 30 31 32 33 34 36 37 37 37 38 39 39 38 36 36 37 37 34 33 33 35 36 35 34 32 32 32 31 30 29 31 31 31 31 29 29 29 30 31
18 19 20 21 21 22 21 20 19 19 19 20 21 22 22 22 22 22 23 23 24 25 27 28 29 30 29 29 29 30 31 31 32 33 33 33 34 34 35 36 37 37 36 35 35 34 33 32 32 32 33 34 33 31 30 31 31 31 31 30 31 30 29 28 28 28 28 29 30
18 19 20 21 22 22 21 20 19 19 19 19 20 20 21 22 23 23 24 24 25 26 26 28 29 30 30 29 30 31 31 32 33 33 33 33 32 33 34 34 34 34 33 32 32 32 32 32 32 32 32 31 30 29 29 31 31 31 32 32 30 28 27 26 27 28 28 28 28
18 19 19 20 21 21 21 19 19 19 19 20 20 20 21 22 23 24 24 25 25 25 26 27 29 29 30 30 31 31 31 32 33 33 33 33 32 32 33 34 33 32 31 30 31 31 31 32 32 32 31 30 30 29 30 32 33 33 32 30 29 27 26 26 28 29 29 28 26
18 18 19 20 20 20 20 19 19 19 20 20 20 20 21 22 23 24 24 25 25 26 27 28 28 28 29 30 31 31 32 32 33 33 33 33 33 33 33 34 33 32 30 30 30 30 31 32 33 32 32 32 31 31 32 33 33 32 30 28 27 26 26 27 28 29 27 25 22
18 18 18 19 19 19 20 19 19 20 20 20 21 21 22 22 23 23 24 25 26 27 28 28 28 28 28 29 29 30 31 32 33 33 34 34 33 33 33 33 33 32 31 30 30 30 31 32 33 33 33 33 32 32 31 31 30 29 28 27 27 26 25 25 25 24 22 19 18
18 18 18 18 19 19 19 19 19 20 21 21 21 22 22 22 22 23 24 25 25 26 27 27 27 27 27 27 27 27 28 29 31 33 34 34 33 33 32 32 32 32 32 32 31 31 30 31 32 32 32 31 30 28 27 26 26 26 26 26 26 24 22 21 19 18 17 17 19
17 18 18 18 18 19 19 19 20 21 21 22 22 22 22 22 22 23 23 24 25 25 25 25 26 27 27 27 26 25 25 26 28 31 32 33 33 32 32 32 32 33 33 33 32 31 30 30 29 29 27 26 25 24 22 22 22 23 24 24 23 21 19 17 17 17 17 18 20
17 17 17 18 18 18 18 19 20 20 21 22 22 22 22 22 22 22 23 24 25 26 25 25 25 26 27 26 25 24 24 23 25 27 29 30 30 30 30 31 31 31 31 31 30 29 28 26 25 24 23 22 21 20 19 19 20 20 21 20 19 18 17 17 17 17 17 16 16
16 17 17 17 17 18 18 19 20 20 20 21 22 22 22 22 22 22 23 23 25 25 26 26 26 27 26 26 25 23 23 23 24 25 26 26 26 27 28 28 27 27 26 26 26 25 24 23 22 22 21 21 21 20 19 19 19 19 19 18 18 18 18 18 17 15 13 12 12
16 16 17 17 17 18 19 19 20 20 20 21 21 21 21 21 22 22 23 24 25 25 26 27 28 27 27 26 24 23 22 23 24 25 25 24 24 24 24 25 24 23 23 23 23 23 22 22 21 22 22 22 22 21 20 20 20 19 19 19 19 19 17 16 13 11 10 10 11
16 16 16 17 17 18 19 20 20 20 20 20 21 21 21 21 21 22 23 24 25 26 27 28 28 28 27 26 24 23 23 24 25 26 25 23 22 21 22 22 22 22 22 22 23 23 22 22 22 23 23 22 22 21 21 21 21 21 21 21 19 16 14 11 10 10 10 11 11
16 16 17 17 17 18 19 20 20 20 20 21 21 21 21 21 21 22 23 25 25 26 27 28 28 28 28 26 25 24 25 25 26 25 24 21 20 20 20 21 21 21 22 22 23 23 22 22 23 23 23 22 22 22 22 23 23 24 24 21 15 12 10 10 10 10 11 11 11
17 17 17 17 17 18 19 20 20 20 20 21 21 21 21 21 22 22 23 24 25 25 25 26 28 28 27 26 25 25 26 27 26 24 22 20 18 19 19 20 21 21 22 22 23 23 23 23 23 23 22 22 23 24 25 25 26 26 23 17 13 11 11 10 10 10 10 9 9
17 17 17 17 18 19 20 20 20 21 21 21 22 22 21 21 22 23 23 23 24 24 25 25 27 27 27 25 25 26 27 27 26 23 21 19 18 19 19 20 20 21 21 22 23 23 23 23 22 22 22 23 25 26 26 25 24 21 18 15 14 13 12 11 10 9 8 8 7
18 18 18 18 19 20 20 20 21 21 22 22 22 22 22 22 23 24 24 24 23 23 24 25 26 26 25 25 25 26 26 26 24 22 20 19 20 20 20 20 20 21 22 22 23 23 23 22 22 22 23 25 25 24 22 19 17 15 15 15 15 14 13 12 11 10 10 10 10
18 18 18 19 20 20 21 21 21 22 22 23 23 23 23 23 24 24 24 24 24 24 24 25 24 24 24 23 24 25 26 25 23 21 21 21 22 22 22 21 21 21 22 23 24 24 24 23 24 24 25 25 23 21 18 16 15 15 15 15 15 14 14 14 14 14 14 14 13
19 19 19 20 20 20 21 21 21 22 23 23 23 23 23 24 24 25 24 24 24 24 24 23 22 21 21 21 23 24 25 24 22 21 22 23 23 23 23 22 21 22 23 24 24 25 25 25 25 26 25 24 21 19 18 17 16 16 16 16 16 15 16 17 17 17 18 17 17
20 20 20 20 20 20 20 21 21 22 23 24 24 24 24 24 24 24 24 24 25 25 24 22 20 19 18 19 21 23 24 23 22 22 23 23 23 22 21 20 21 21 21 23 24 25 25 25 24 24 24 23 21 19 18 18 18 18 17 17 17 18 19 19 19 20 20 20 20
21 20 20 20 20 20 20 20 20 21 23 23 24 24 23 23 23 24 24 24 25 25 23 21 19 18 18 20 21 21 21 21 21 22 23 23 22 20 19 17 17 17 18 21 23 23 23 23 22 22 22 22 21 20 19 18 19 19 20 20 20 21 21 22 21 22 21 21 20
21 21 20 20 20 20 20 20 20 21 22 23 23 23 22 22 22 23 24 24 25 25 23 20 18 19 20 21 21 21 20 21 21 22 23 22 21 18 16 15 13 13 15 17 19 20 21 20 21 21 21 21 20 19 19 19 19 21 22 23 23 23 23 23 23 23 22 22 22
22 21 21 20 20 21 21 20 20 21 21 22 22 21 21 21 22 23 24 25 26 25 22 19 18 19 21 22 21 21 21 21 21 22 23 22 20 18 16 14 11 10 11 13 15 17 19 19 20 20 21 20 20 20 20 21 22 23 24 25 24 24 24 24 25 25 25 25 26
22 22 21 20 20 21 21 21 20 21 21 21 20 19 18 19 20 22 23 24 24 22 19 18 18 20 21 23 22 21 21 20 21 21 22 21 20 19 17 14 13 12 12 12 14 16 18 19 19 20 20 20 20 21 23 24 25 26 26 27 26 26 26 27 27 27 27 28 28
23 22 21 21 21 21 22 22 21 21 21 20 19 18 17 18 19 20 21 21 21 19 17 16 17 18 19 19 19 18 17 18 19 20 22 22 21 19 17 17 17 17 16 16 16 16 18 19 20 20 21 22 23 24 26 27 27 28 28 29 29 30 30 30 30 30 30 30 30
23 22 21 21 21 22 22 22 22 21 21 20 18 16 15 17 19 20 20 20 19 18 17 16 17 17 17 17 18 18 18 20 21 22 23 23 22 20 20 20 20 20 20 19 19 19 19 20 21 22 24 25 26 28 29 30 30 31 32 32 32 31 31 31 31 31 30 30 30
23 22 21 21 21 22 23 23 23 22 21 19 16 14 14 16 19 20 21 21 21 20 19 18 19 19 19 19 19 20 21 23 24 24 24 23 22 22 23 24 24 23 23 23 22 22 23 24 25 26 27 28 30 31 32 33 33 34 34 34 33 33 32 32 32 31 30 30 30
22 22 21 21 21 22 23 24 24 23 21 17 15 15 17 19 21 22 22 23 23 23 22 22 22 23 23 22 22 21 21 22 23 24 24 23 22 23 25 27 26 26 26 26 26 27 27 28 28 29 29 31 33 34 35 35 35 36 36 36 34 33 33 32 31 31 30 30 30
21 21 21 21 21 22 23 24 25 23 19 17 17 19 21 22 23 23 24 25 26 26 25 25 25 25 24 24 24 24 22 22 22 24 25 25 25 25 27 29 28 28 28 28 29 30 31 31 31 31 32 34 36 36 37 37 37 37 36 36 35 34 33 32 32 31 30 29 29
21 21 21 21 21 21 23 24 24 21 19 19 22 23 24 25 25 25 26 26 27 27 27 26 25 25 25 26 28 28 27 26 26 26 27 28 28 29 30 31 30 29 29 30 31 32 32 33 33 34 35 36 37 37 38 38 38 38 37 36 35 34 33 33 32 31 30 29 28
21 21 21 21 21 21 22 23 21 20 21 23 25 26 27 28 28 28 28 28 28 28 28 28 28 28 30 31 32 32 31 30 29 29 29 30 29 30 31 32 31 30 30 30 31 32 33 34 35 36 37 37 37 38 39 39 38 37 36 35 34 33 33 32 32 32 31 30 29
21 21 21 21 21 21 21 21 21 22 23 25 26 27 28 29 30 30 30 30 30 30 30 30 31 32 32 33 33 33 33 33 31 31 30 31 30 30 31 32 31 30 30 30 31 32 33 34 35 36 37 38 39 39 39 39 38 36 35 33 33 33 32 31 31 32 32 31 30
Wind_Direction
218 222 226 226 224 223 223 223 223 223 221 216 211 207 203 200 198 199 201 201 200 201 203 204 202 198 196 193 192 190 188 187 187 189 190 191 191 191 191 192 191 191 190 186 185 184 183 181 180 178 177 175 174 174 175 176 178 179 183 191 207 217 216 210 205 200 200 207 216
217 220 222 223 222 221 221 224 226 230 232 232 223 213 204 198 195 197 199 200 201 201 201 202 203 200 197 196 195 194 193 190 189 189 190 192 193 194 193 193 192 193 193 190 187 185 185 183 182 181 179 176 175 176 177 180 182 183 186 196 211 216 213 207 202 199 201 209 216
217 217 218 218 218 217 218 220 223 227 231 234 231 218 205 196 194 195 197 199 199 199 200 201 204 203 200 199 199 199 198 196 194 192 192 194 194 194 193 193 193 193 192 190 186 184 184 184 183 181 179 177 177 178 181 184 190 190 192 205 214 214 208 203 199 199 204 211 218
221 218 216 215 215 215 216 217 218 221 224 227 227 218 205 196 194 195 197 198 197 197 198 200 202 202 202 201 201 202 203 202 199 198 197 195 193 193 194 194 195 194 192 188 183 181 181 182 183 182 180 178 179 180 182 187 192 195 200 211 214 209 202 198 196 200 207 214 220
224 220 217 215 213 213 214 214 214 215 217 217 215 210 202 196 195 196 196 195 194 195 196 197 197 197 198 199 200 203 205 205 203 201 197 192 189 190 193 196 197 197 196 191 185 183 182 180 180 180 180 180 180 180 182 186 191 196 204 212 209 202 197 195 199 205 212 218 221
223 221 218 216 214 212 211 211 211 210 209 206 204 200 195 193 192 191 191 191 190 191 190 190 189 190 191 193 194 197 201 204 204 203 199 193 188 187 190 195 198 199 198 195 191 189 186 179 176 176 178 178 179 178 180 184 190 198 205 206 201 196 194 198 205 212 217 221 223
222 221 219 217 215 212 208 207 206 204 201 198 196 192 188 185 183 182 182 182 182 180 178 177 179 180 181 183 185 187 192 198 201 202 199 193 189 186 187 192 195 197 196 194 192 190 186 178 173 172 174 176 176 176 179 185 191 198 202 198 193 192 196 204 211 216 221 224 225
220 219 218 216 213 208 204 201 199 196 193 191 190 187 181 176 174 172 172 171 170 168 166 166 167 171 174 176 179 180 182 185 189 193 194 191 187 185 186 189 191 192 192 189 188 186 184 179 173 171 171 172 173 175 180 186 193 197 197 192 189 194 202 209 215 220 223 225 225
212 212 212 210 205 200 196 192 189 186 183 182 181 179 175 170 169 168 167 166 167 167 165 162 163 166 170 173 177 178 176 174 176 180 184 188 187 185 184 185 187 188 187 184 182 181 180 177 174 172 170 171 171 174 179 185 191 193 191 188 191 199 207 213 219 223 225 225 224
199 198 197 195 190 185 180 177 175 173 171 169 169 168 168 169 171 171 171 171 172 172 171 168 166 167 170 173 176 177 174 170 170 171 174 177 180 180 179 179 180 181 180 178 176 175 175 173 171 170 169 169 169 170 175 182 187 188 188 190 196 204 212 218 223 225 226 225 224
186 185 183 177 172 169 166 162 161 160 159 158 159 162 165 170 174 175 176 176 175 175 175 174 172 171 171 172 173 174 173 171 169 167 167 168 170 171 172 172 173 173 172 171 170 170 169 168 166 165 166 165 166 168 173 180 184 186 189 195 202 209 217 223 226 226 226 225 224
171 170 169 165 162 160 159 157 156 156 156 156 158 162 166 171 175 177 177 176 174 174 175 175 174 173 171 170 171 171 171 170 169 167 165 164 163 164 164 164 164 165 165 165 165 164 163 161 159 159 159 161 164 169 174 181 185 188 193 199 206 214 222 226 227 226 225 225 224
160 158 157 157 158 158 158 157 157 159 159 160 162 165 168 171 174 175 175 173 172 172 172 173 174 173 171 169 169 169 169 169 168 167 165 163 161 159 158 157 157 158 159 159 159 158 157 156 155 155 157 160 165 171 178 184 189 193 198 203 211 218 224 227 226 225 224 224 224
154 153 153 153 155 157 157 156 157 159 160 161 162 164 166 168 172 173 173 172 171 170 170 170 171 171 171 169 169 168 167 167 166 165 163 161 159 157 155 155 155 156 156 155 155 154 153 153 154 156 160 164 169 176 183 188 193 197 202 208 215 221 225 226 226 224 223 223 224
152 151 152 153 154 155 156 156 157 158 159 160 161 162 163 165 168 170 170 170 169 169 169 168 168 169 170 170 169 168 166 165 164 162 160 159 158 156 156 157 157 156 155 154 154 153 153 154 157 161 166 170 175 180 185 190 194 200 205 212 217 222 225 226 225 223 221 221 222
154 153 154 154 154 154 156 156 157 158 159 159 160 161 162 163 165 166 166 166 166 166 166 166 166 166 167 169 169 166 164 163 162 160 159 158 157 157 158 159 158 157 156 156 157 156 157 159 162 167 171 175 178 181 185 190 196 202 208 213 217 220 222 222 221 218 217 216 217
157 157 157 157 155 155 156 157 157 158 158 158 160 161 161 162 162 163 163 163 163 162 162 163 163 163 163 164 164 162 161 159 159 159 158 157 157 158 158 159 159 159 160 160 160 160 161 163 167 171 174 176 178 181 185 192 198 204 209 213 215 216 216 215 213 211 211 213 218
161 160 159 159 158 156 156 156 156 157 157 157 159 160 161 161 161 161 161 161 161 160 159 159 159 159 159 159 159 158 156 155 155 155 155 156 156 156 157 157 159 160 162 163 163 164 164 166 168 170 172 174 177 182 187 194 200 204 207 209 210 210 208 207 206 210 216 224 232
162 161 160 160 159 157 155 155 155 155 155 156 158 159 159 160 161 161 160 159 159 158 156 154 155 156 156 156 155 154 152 151 149 149 150 150 151 152 153 155 157 159 161 162 163 164 165 166 167 168 170 173 178 183 189 193 198 201 203 203 202 202 202 205 211 221 232 240 246
163 163 162 161 160 158 156 156 155 155 155 155 157 157 158 159 160 159 159 158 157 156 154 152 152 152 153 153 153 151 149 147 144 143 142 142 143 145 148 150 153 155 157 159 161 162 164 165 166 167 169 173 178 183 187 191 195 197 198 197 197 200 205 213 222 232 240 246 249
164 163 162 161 160 159 158 157 156 155 155 155 155 156 156 157 157 157 157 156 155 153 151 150 150 150 150 151 151 149 147 145 142 140 138 136 137 140 143 146 148 150 153 157 159 161 162 162 163 164 168 173 178 182 186 190 194 196 197 198 200 206 213 220 227 231 234 237 240
163 162 162 161 161 161 160 159 157 155 154 153 153 153 154 154 156 156 155 153 151 149 148 148 148 149 150 151 151 149 147 145 142 140 138 137 137 139 141 144 148 152 155 158 159 159 158 158 159 163 168 173 179 184 189 193 196 199 200 202 205 208 212 216 219 221 224 228 232
162 161 160 161 161 161 161 160 158 155 153 151 150 150 150 151 153 153 151 150 149 147 146 146 147 148 151 153 153 151 148 145 143 141 140 139 140 141 144 147 152 156 158 159 158 156 155 156 160 165 170 176 183 188 193 197 200 203 204 204 201 199 202 205 208 213 217 221 224
159 159 159 160 161 161 160 159 157 154 152 149 148 147 147 148 150 150 149 148 148 148 147 144 146 149 152 154 154 152 149 146 144 143 143 143 144 146 148 152 156 159 160 159 158 157 157 160 164 170 176 182 188 193 197 201 205 207 206 198 188 186 190 193 197 201 205 208 208
157 157 157 158 158 158 157 156 155 154 152 150 148 147 146 147 148 147 147 147 147 146 146 144 147 150 153 155 154 153 150 148 146 146 146 148 149 150 151 154 157 160 162 162 161 162 164 167 171 177 183 189 195 200 203 205 205 203 197 189 185 185 184 182 181 181 180 176 168
157 156 156 156 155 154 154 154 154 154 154 152 150 148 147 147 147 146 146 146 145 145 144 145 147 151 154 155 155 154 153 152 151 151 152 153 153 153 154 156 159 163 165 166 167 168 171 176 181 186 192 198 200 199 195 192 189 185 180 180 182 181 175 165 158 154 151 147 142
158 156 155 155 153 152 151 152 154 155 156 155 153 151 149 148 148 147 147 146 145 144 143 144 146 149 153 155 155 155 156 157 158 159 159 157 156 156 157 159 163 166 169 171 173 176 180 184 190 195 198 198 194 187 180 174 169 167 167 167 168 168 163 155 147 141 137 134 133
159 158 157 155 154 152 152 152 153 155 157 158 156 154 152 150 149 149 148 147 146 144 143 143 144 147 150 153 156 158 160 162 165 165 162 158 158 159 161 162 165 170 173 176 179 183 187 192 197 200 199 193 184 177 171 164 159 156 154 153 152 151 149 144 139 134 129 126 125
161 161 160 158 157 155 154 153 153 155 158 159 159 157 155 153 152 151 150 149 148 147 146 146 147 148 151 154 157 160 162 166 168 165 161 158 159 160 161 164 168 173 177 181 185 189 195 199 201 200 197 190 180 171 163 156 151 147 143 140 139 137 135 133 131 128 125 122 120
164 163 162 162 161 159 157 155 154 155 157 159 160 159 158 156 155 154 152 151 151 151 151 151 152 153 155 157 159 161 164 167 167 162 158 156 157 159 162 165 169 174 182 188 194 198 202 203 201 197 193 187 178 167 156 149 143 138 133 129 128 127 126 125 123 122 121 121 120
167 166 165 164 164 163 161 158 155 154 155 157 159 160 160 160 158 156 154 154 155 156 156 156 157 157 158 159 160 162 164 165 163 159 156 156 156 157 159 163 166 177 190 198 203 203 202 198 194 190 187 183 173 161 149 142 135 129 125 123 122 122 121 120 118 117 118 118 117
168 167 166 166 165 165 163 161 157 155 154 155 157 160 161 160 158 157 156 156 158 159 160 161 161 160 160 160 161 163 164 165 163 160 158 157 155 155 155 154 158 166 180 194 199 197 193 188 184 182 180 176 165 153 143 136 129 124 121 119 119 119 119 118 116 115 114 114 112
168 168 167 166 166 166 165 163 159 155 153 153 156 158 159 160 158 157 157 158 161 163 166 168 167 165 164 164 164 166 167 167 164 161 157 155 154 150 146 141 135 136 147 166 177 181 180 178 176 174 172 167 155 145 138 132 126 122 119 116 116 116 116 115 115 114 113 112 111
168 168 167 167 166 166 165 164 160 156 153 153 155 157 159 160 159 159 160 162 165 167 168 167 163 160 158 158 157 156 154 153 150 147 147 150 149 144 135 127 123 126 135 149 160 167 170 170 169 168 164 157 146 137 131 127 123 119 116 114 113 113 113 113 112 112 112 112 112
167 167 167 167 166 165 164 162 159 156 154 154 155 156 157 159 158 158 158 160 160 158 154 150 147 143 139 137 142 141 137 138 137 138 140 142 142 135 126 121 120 125 134 142 149 155 159 162 163 161 157 147 137 131 127 122 119 116 114 112 111 110 110 110 110 111 111 112 113
166 165 165 165 165 164 163 161 159 156 155 155 152 146 143 146 147 148 149 149 146 141 135 132 132 131 127 123 127 130 129 130 130 130 133 136 135 129 123 119 119 124 130 136 140 145 149 153 155 155 150 142 133 128 124 120 116 114 112 110 109 108 108 109 109 110 111 111 112
165 164 163 162 162 162 161 160 158 157 155 151 139 130 129 132 132 135 139 139 136 131 126 123 120 118 116 114 115 118 123 126 127 124 123 127 130 128 123 118 119 122 127 132 136 139 142 145 148 150 146 138 132 127 122 118 115 112 110 107 105 105 105 106 107 107 108 109 111
165 164 163 161 160 160 159 159 158 156 151 137 126 124 125 125 123 125 130 133 130 126 122 119 114 113 113 113 111 115 120 123 126 123 119 121 126 128 124 119 118 121 126 130 133 136 138 140 142 144 142 137 131 126 122 118 114 111 108 105 103 102 102 102 102 102 104 106 108
166 164 163 161 160 159 158 157 155 149 138 125 121 122 122 121 118 119 124 127 128 125 121 118 114 114 115 114 111 111 113 115 117 118 117 116 120 123 123 120 119 122 126 130 132 134 135 136 137 139 138 135 131 127 123 119 115 111 108 105 103 101 99 98 97 97 98 100 103
166 165 163 162 160 158 156 153 146 136 127 122 121 119 119 118 117 117 119 121 121 120 118 115 114 113 111 111 109 108 107 108 110 111 112 113 116 120 121 119 119 121 124 128 130 132 133 133 133 134 133 132 130 127 124 120 116 112 109 107 105 102 99 97 96 95 94 95 96
166 164 162 161 159 157 152 143 133 126 122 121 119 118 118 118 117 116 116 115 115 115 114 114 112 111 111 111 109 107 105 105 105 108 110 112 114 116 117 118 118 119 122 124 127 129 130 131 131 131 130 129 128 127 125 121 117 113 111 109 107 105 102 99 96 94 93 92 92